TimeNZDT,TemperatureF,Dew PointF,Humidity,Sea Level PressureIn,VisibilityMPH,Wind Direction,Wind SpeedMPH,Gust SpeedMPH,PrecipitationIn,Events,Conditions,WindDirDegrees,DateUTC
12:50 AM,-14.8,-9999,N/A,28.84,6.2,North,9.2,-,N/A,,Clear,10,2012-12-05 11:50:00
1:00 AM,-14,,,,7,North,9.2,,,,,10,2012-12-05 12:00:00
3:50 AM,-14.8,-9999,N/A,28.82,6.2,North,10.4,-,N/A,,Clear,10,2012-12-05 14:50:00
4:50 AM,-14.8,-9999,N/A,28.81,6.2,North,9.2,-,N/A,,Clear,360,2012-12-05 15:50:00
5:50 AM,-13.0,-9999,N/A,28.82,6.2,NNE,8.1,-,N/A,,Clear,20,2012-12-05 16:50:00
6:50 AM,-13.0,-9999,N/A,28.81,6.2,NNE,6.9,-,N/A,,Clear,20,2012-12-05 17:50:00
7:00 AM,-14,,,,7,Calm,Calm,,,,,200,2012-12-05 18:00:00
7:50 AM,-14.8,-9999,N/A,28.81,6.2,North,9.2,-,N/A,,Clear,360,2012-12-05 18:50:00
8:50 AM,-14.8,-9999,N/A,28.81,6.2,North,9.2,-,N/A,,Clear,360,2012-12-05 19:50:00
9:50 AM,-14.8,-9999,N/A,28.81,6.2,North,8.1,-,N/A,,Clear,350,2012-12-05 20:50:00
10:50 AM,-14.8,-9999,N/A,28.81,6.2,North,9.2,-,N/A,,Clear,350,2012-12-05 21:50:00
11:50 AM,-14.8,-9999,N/A,28.80,6.2,North,9.2,-,N/A,,Clear,350,2012-12-05 22:50:00
12:50 PM,-14.8,-9999,N/A,28.81,6.2,North,6.9,-,N/A,,Clear,350,2012-12-05 23:50:00
1:00 PM,-16,,,,7,North,6.9,,,,,350,2012-12-06 00:00:00
1:50 PM,-16.6,-9999,N/A,28.81,6.2,North,6.9,-,N/A,,Clear,350,2012-12-06 00:50:00
2:50 PM,-14.8,-9999,N/A,28.80,6.2,North,5.8,-,N/A,,Clear,350,2012-12-06 01:50:00
3:50 PM,-14.8,-9999,N/A,28.79,6.2,North,6.9,-,N/A,,Clear,350,2012-12-06 02:50:00
4:50 PM,-16.6,-9999,N/A,28.79,6.2,NNW,6.9,-,N/A,,Clear,340,2012-12-06 03:50:00
5:50 PM,-16.6,-9999,N/A,28.79,6.2,North,3.5,-,N/A,,Clear,350,2012-12-06 04:50:00
6:50 PM,-16.6,-9999,N/A,28.79,6.2,Calm,Calm,-,N/A,,Clear,0,2012-12-06 05:50:00
7:00 PM,-17,,,,7,North,2.3,,,,,350,2012-12-06 06:00:00